Weather History for KOTM - March, 2014

Change the Weather History Date:

Thursday, March 13, 2014

  Actual Average Record
Temperature  
Mean Temperature 42 °F 38 °F  
Max Temperature 60 °F 48 °F 77 °F (2007)
Min Temperature 25 °F 27 °F 4 °F (1993)
Degree Days  
Heating Degree Days 22 27  
Month to date heating degree days 390  
Since 1 July heating degree days 5275  
Cooling Degree Days 0 0  
Month to date cooling degree days 0  
Year to date cooling degree days 0  
Moisture  
Dew Point 29 °F    
Average Humidity 64    
Maximum Humidity 85    
Minimum Humidity 42    
Precipitation  
Precipitation 0.00 in 0.06 in 1.20 in (1917)
Month to date precipitation 0.87  
Year to date precipitation 3.05  
Sea Level Pressure  
Sea Level Pressure 29.97 in    
Wind  
Wind Speed 9 mph (SSW)    
Max Wind Speed 18 mph    
Max Gust Speed 24 mph    
Visibility 10 miles    
Events      
T = Trace of Precipitation, MM = Missing Value Source: NWS Daily Summary

Daily Weather History Graph

Daily Weather History Graph

Search for Another Location

Airport or City:

Trip Planner

Search our weather history database for the weather conditions in past years. The results will help you decide how hot, cold, wet, or windy it might be!

Date:

Astronomy

Mar. 13, 2014 Rise Set
Actual Time 7:24 AM CDT 7:14 PM CDT
Civil Twilight 6:57 AM CDT 7:41 PM CDT
Nautical Twilight 6:25 AM CDT 8:13 PM CDT
Astronomical Twilight 5:53 AM CDT 8:46 PM CDT
Moon 4:39 PM CDT (3/13) 5:33 AM CDT (3/13)
Length of Visible Light 12h 44m
Length of Day
11h 49m
Waxing Gibbous, 91% of the Moon is Illuminated
Mar 13
Waxing Gibbous
Mar 16
Full
Mar 23
Last Quarter
Mar 30
New
Apr 7
First Quarter

Hourly Weather History & Observations

Time (CDT) Temp. Windchill Dew Point Humidity Pressure Visibility Wind Dir Wind Speed Gust Speed Precip Events Conditions
12:53 AM 25.0 °F 20.7 °F 21.0 °F 85% 30.14 in 10.0 mi SE 3.5 mph - N/A   Scattered Clouds
1:53 AM 28.9 °F 23.9 °F 23.0 °F 78% 30.14 in 10.0 mi SSW 4.6 mph - N/A   Overcast
2:53 AM 28.0 °F 24.2 °F 23.0 °F 81% 30.13 in 10.0 mi South 3.5 mph - N/A   Overcast
3:53 AM 28.0 °F 22.8 °F 23.0 °F 81% 30.11 in 10.0 mi South 4.6 mph - N/A   Overcast
4:53 AM 27.0 °F 19.5 °F 21.0 °F 78% 30.09 in 10.0 mi South 6.9 mph - N/A   Partly Cloudy
5:53 AM 28.0 °F 20.0 °F 21.9 °F 78% 30.08 in 10.0 mi SSE 8.1 mph - N/A   Mostly Cloudy
6:53 AM 28.0 °F 19.3 °F 21.9 °F 78% 30.07 in 10.0 mi South 9.2 mph - N/A   Scattered Clouds
7:53 AM 28.0 °F 18.1 °F 21.9 °F 78% 30.07 in 10.0 mi South 11.5 mph - N/A   Clear
8:53 AM 30.9 °F 21.2 °F 23.0 °F 72% 30.06 in 10.0 mi South 12.7 mph - N/A   Clear
9:53 AM 36.0 °F 25.6 °F 27.0 °F 70% 30.03 in 10.0 mi SSW 18.4 mph - N/A   Clear
10:53 AM 41.0 °F 32.5 °F 28.9 °F 62% 30.02 in 10.0 mi SSW 17.3 mph - N/A   Clear
11:53 AM 45.0 °F 38.2 °F 30.9 °F 58% 29.99 in 10.0 mi SSW 15.0 mph - N/A   Clear
12:53 PM 51.1 °F - 34.0 °F 52% 29.97 in 10.0 mi SSW 15.0 mph - N/A   Clear
1:53 PM 55.0 °F - 35.1 °F 47% 29.94 in 10.0 mi SW 16.1 mph - N/A   Clear
2:53 PM 57.0 °F - 37.0 °F 47% 29.91 in 10.0 mi WSW 16.1 mph - N/A   Clear
3:53 PM 59.0 °F - 37.9 °F 46% 29.89 in 10.0 mi SW 13.8 mph - N/A   Clear
4:53 PM 60.1 °F - 37.0 °F 42% 29.87 in 10.0 mi SW 17.3 mph 24.2 mph N/A   Clear
5:53 PM 59.0 °F - 36.0 °F 42% 29.85 in 10.0 mi SW 12.7 mph - N/A   Clear
6:53 PM 55.0 °F - 35.1 °F 47% 29.84 in 10.0 mi SSW 10.4 mph - N/A   Clear
7:53 PM 46.9 °F - 33.1 °F 59% 29.84 in 10.0 mi South 8.1 mph - N/A   Clear
8:53 PM 45.0 °F 39.7 °F 32.0 °F 60% 29.83 in 10.0 mi South 10.4 mph - N/A   Clear
9:53 PM 44.1 °F 38.6 °F 33.1 °F 65% 29.81 in 10.0 mi South 10.4 mph - N/A   Clear
10:53 PM 42.1 °F 35.7 °F 32.0 °F 67% 29.79 in 10.0 mi South 11.5 mph - N/A   Clear
11:53 PM 42.1 °F 35.7 °F 30.9 °F 65% 29.76 in 10.0 mi South 11.5 mph - N/A   Clear